User: anonymous   Login
Location: Unspecified
(0.0000°N, 0.0000°E)
Time: 23:19:07
(UTC+00:00)
Language:

TSUBAME - Orbit

View from above orbital plane
View from above orbital plane
View from above satellite
View from above satellite

Ground track
Ground track

The orbit data is extracted from the following two-line orbital elements,

1 40302U 14070E   18050.83235670 +.00000623 +00000-0 +34446-4 0  9995
2 40302 097.3485 120.7920 0038837 342.9774 152.4472 15.16919294181881
Epoch (UTC): 19 February 2018 19:58:35
Eccentricity: 0.0038837
inclination: 97.3485°
perigee height: 488 km
apogee height: 542 km
right ascension of ascending node: 120.7920°
argument of perigee: 342.9774°
revolutions per day: 15.16919294
mean anomaly at epoch: 152.4472°
orbit number at epoch: 18188

The dashed part of the orbit path shows where the satellite is in the earth's shadow,  

DLR